Location: Unspecified
(0.0000°N, 0.0000°E)
Time: 00:18:23
(UTC+00:00)

Vanguard 2 - Pass Details

Date: 14 December 2018
Orbit: 552 x 2939 km, 32.9° (Epoch: 18 January)

Event Time Altitude Azimuth Distance (km) Brightness Sun altitude
Rises 14:51:58 0° 223° (SW) 3,992 12.0 41.1°
Reaches altitude 10° 14:55:30 10° 215° (SW) 2,668 11.3 40.4°
Maximum altitude 15:00:50 33° 151° (SSE) 1,182 8.9 39.2°
Drops below altitude 10° 15:04:45 10° 85° (E) 1,937 9.3 38.4°
Sets 15:06:55 0° 75° (ENE) 2,748 9.9 37.9°
